Silver City, NM

1:42 AM MST on December 11, 2019 (GMT -0700)
Grant County

Weather History for KSVC - October, 2019

Change the Weather History Date:

Wednesday, October 2, 2019

  Actual Average (WUND) Record (WUND)
Temperature  
Mean Temperature 62 °F -  
Max Temperature 75 °F - - (-1)
Min Temperature 50 °F - - (-1)
Degree Days  
Heating Degree Days 2    
Growing Degree Days 12 (Base 50)    
Moisture  
Dew Point 46 °F    
Average Humidity 58    
Maximum Humidity 85    
Minimum Humidity 31    
Precipitation  
Precipitation 0.00 in - - ()
Sea Level Pressure  
Sea Level Pressure 30.14 in    
Wind  
Wind Speed 6 mph (NNE)    
Max Wind Speed 14 mph    
Max Gust Speed 22 mph    
Visibility 10 miles    
Events Rain    
Averages and records for this station are not official NWS values.
T = Trace of Precipitation, MM = Missing Value Source: NWS Daily Summary

Daily Weather History Graph

Daily Weather History Graph

Search for Another Location

Airport or City:

Astronomy

Oct. 02, 2019 Rise Set
Actual Time 7:07 AM MDT 6:56 PM MDT
Civil Twilight 6:42 AM MDT 7:20 PM MDT
Nautical Twilight 6:14 AM MDT 7:49 PM MDT
Astronomical Twilight 5:45 AM MDT 8:17 PM MDT
Moon 11:23 AM MDT (10/2) 10:06 PM MDT (10/2)
Length of Visible Light 12h 37m
Length of Day
11h 48m
Waxing Crescent, 21% of the Moon is Illuminated
Oct 2
Waxing Crescent
Oct 5
First Quarter
Oct 13
Full
Oct 21
Last Quarter
Oct 27
New

Hourly Weather History & Observations

Time (MDT) Temp. Dew Point Humidity Pressure Visibility Wind Dir Wind Speed Gust Speed Precip Events Conditions
12:15 AM 60.6 °F 50.0 °F 68% 30.10 in 10.0 mi ENE 3.5 mph - N/A   Overcast
12:35 AM 59.4 °F 53.2 °F 80% 30.10 in 10.0 mi WNW 3.5 mph - N/A Rain Light Rain
12:55 AM 60.1 °F 50.5 °F 71% 30.10 in 10.0 mi Calm Calm - N/A   Mostly Cloudy
1:15 AM 59.2 °F 52.2 °F 78% 30.10 in 10.0 mi Calm Calm - N/A   Mostly Cloudy
1:35 AM 58.6 °F 52.7 °F 81% 30.10 in 10.0 mi North 3.5 mph - N/A   Mostly Cloudy
1:55 AM 58.6 °F 51.3 °F 76% 30.10 in 10.0 mi West 3.5 mph - N/A   Mostly Cloudy
2:15 AM 60.1 °F 48.4 °F 65% 30.11 in 10.0 mi West 6.9 mph - N/A   Mostly Cloudy
2:35 AM 56.5 °F 50.5 °F 80% 30.11 in 10.0 mi WNW 4.6 mph - N/A   Mostly Cloudy
2:55 AM 55.0 °F 49.6 °F 82% 30.10 in 10.0 mi NW 5.8 mph - N/A   Mostly Cloudy
3:15 AM 53.8 °F 49.5 °F 85% 30.10 in 10.0 mi NW 9.2 mph - N/A   Mostly Cloudy
3:35 AM 54.1 °F 48.4 °F 81% 30.10 in 10.0 mi NW 4.6 mph - N/A   Mostly Cloudy
3:55 AM 53.2 °F 48.4 °F 84% 30.09 in 10.0 mi North 9.2 mph - N/A   Mostly Cloudy
4:15 AM 52.9 °F 48.2 °F 84% 30.09 in 10.0 mi North 10.4 mph - N/A   Overcast
4:35 AM 52.7 °F 47.7 °F 83% 30.09 in 10.0 mi NNW 9.2 mph - N/A   Overcast
4:55 AM 52.0 °F 47.3 °F 84% 30.10 in 10.0 mi North 9.2 mph - N/A   Mostly Cloudy
5:15 AM 52.7 °F 46.8 °F 80% 30.11 in 10.0 mi North 9.2 mph - N/A   Mostly Cloudy
5:35 AM 51.8 °F 46.0 °F 81% 30.11 in 10.0 mi North 10.4 mph - N/A   Overcast
5:55 AM 51.3 °F 45.5 °F 81% 30.11 in 10.0 mi NNW 10.4 mph - N/A   Scattered Clouds
6:15 AM 52.3 °F 45.3 °F 77% 30.11 in 10.0 mi NNW 11.5 mph - N/A   Clear
6:35 AM 51.6 °F 45.1 °F 79% 30.11 in 10.0 mi NNW 11.5 mph - N/A   Clear
6:55 AM 50.5 °F 45.0 °F 81% 30.12 in 10.0 mi NNW 9.2 mph - N/A   Clear
7:15 AM 50.9 °F 45.0 °F 80% 30.12 in 10.0 mi NNW 9.2 mph - N/A   Clear
7:35 AM 50.9 °F 45.0 °F 80% 30.13 in 10.0 mi NNW 8.1 mph - N/A   Clear
7:55 AM 52.9 °F 45.9 °F 77% 30.14 in 10.0 mi Calm Calm - N/A   Clear
8:15 AM 54.1 °F 46.8 °F 76% 30.14 in 10.0 mi NW 5.8 mph - N/A   Clear
8:35 AM 58.5 °F 47.5 °F 67% 30.15 in 10.0 mi North 4.6 mph - N/A   Clear
8:55 AM 60.8 °F 46.9 °F 60% 30.15 in 10.0 mi Calm Calm - N/A   Scattered Clouds
9:15 AM 62.8 °F 46.4 °F 55% 30.16 in 10.0 mi Calm Calm - N/A   Scattered Clouds
9:35 AM 66.0 °F 46.9 °F 50% 30.17 in 10.0 mi SE 3.5 mph - N/A   Scattered Clouds
9:55 AM 66.7 °F 45.3 °F 46% 30.17 in 10.0 mi SE 4.6 mph - N/A   Scattered Clouds
10:15 AM 68.0 °F 44.6 °F 43% 30.17 in 10.0 mi SSE 3.5 mph - N/A   Mostly Cloudy
10:35 AM 69.1 °F 43.5 °F 40% 30.17 in 10.0 mi SSE 3.5 mph - N/A   Mostly Cloudy
10:55 AM 70.9 °F 45.0 °F 39% 30.17 in 10.0 mi South 8.1 mph - N/A   Scattered Clouds
11:15 AM 70.5 °F 45.5 °F 41% 30.17 in 10.0 mi South 4.6 mph - N/A   Mostly Cloudy
11:35 AM 71.1 °F 43.7 °F 37% 30.18 in 10.0 mi SE 5.8 mph - N/A   Mostly Cloudy
11:55 AM 71.2 °F 43.2 °F 36% 30.17 in 10.0 mi Calm Calm - N/A   Mostly Cloudy
12:15 PM 72.1 °F 43.3 °F 35% 30.17 in 10.0 mi South 8.1 mph - N/A   Scattered Clouds
12:35 PM 72.7 °F 42.4 °F 34% 30.17 in 10.0 mi SE 6.9 mph - N/A   Scattered Clouds
12:55 PM 73.8 °F 43.0 °F 33% 30.16 in 10.0 mi SSE 6.9 mph - N/A   Scattered Clouds
1:15 PM 74.8 °F 42.3 °F 31% 30.16 in 10.0 mi SSE 9.2 mph - N/A   Scattered Clouds
1:35 PM 74.7 °F 43.9 °F 33% 30.15 in 10.0 mi SSE 11.5 mph 16.1 mph N/A   Scattered Clouds
1:55 PM 74.3 °F 42.3 °F 32% 30.14 in 10.0 mi South 8.1 mph - N/A   Clear
2:15 PM 75.7 °F 43.9 °F 32% 30.13 in 10.0 mi SE 11.5 mph 20.7 mph N/A   Clear
2:35 PM 73.2 °F 44.2 °F 35% 30.13 in 10.0 mi SSE 12.7 mph 17.3 mph N/A   Clear
2:55 PM 74.5 °F 46.8 °F 37% 30.13 in 10.0 mi SE 13.8 mph 21.9 mph N/A   Scattered Clouds
3:35 PM 73.9 °F 46.9 °F 38% 30.13 in 10.0 mi SSE 13.8 mph 20.7 mph N/A   Scattered Clouds
3:55 PM 73.6 °F 46.0 °F 37% 30.13 in 10.0 mi South 11.5 mph - N/A   Scattered Clouds
4:15 PM 73.9 °F 46.2 °F 37% 30.13 in 10.0 mi SSE 13.8 mph 18.4 mph N/A   Clear
4:35 PM 73.0 °F 46.4 °F 39% 30.13 in 10.0 mi SSE 13.8 mph 17.3 mph N/A   Clear
4:55 PM 72.1 °F 47.1 °F 41% 30.13 in 10.0 mi SSE 12.7 mph 17.3 mph N/A   Clear
5:15 PM 69.4 °F 46.9 °F 45% 30.13 in 10.0 mi SSE 12.7 mph - N/A   Scattered Clouds
5:35 PM 68.4 °F 46.9 °F 46% 30.13 in 10.0 mi South 9.2 mph 16.1 mph N/A   Scattered Clouds
5:55 PM 68.4 °F 44.1 °F 41% 30.14 in 10.0 mi South 8.1 mph - N/A   Clear
6:15 PM 68.0 °F 43.3 °F 41% 30.14 in 10.0 mi SSE 6.9 mph - N/A   Scattered Clouds
6:35 PM 68.0 °F 44.2 °F 42% 30.14 in 10.0 mi SSE 8.1 mph - N/A   Scattered Clouds
6:55 PM 66.7 °F 45.3 °F 46% 30.14 in 10.0 mi ESE 6.9 mph - N/A   Scattered Clouds
7:15 PM 65.3 °F 46.8 °F 51% 30.14 in 10.0 mi ESE 3.5 mph - N/A   Clear
7:35 PM 64.0 °F 47.3 °F 54% 30.14 in 10.0 mi East 3.5 mph - N/A   Clear
7:55 PM 63.7 °F 46.9 °F 54% 30.15 in 10.0 mi Calm Calm - N/A   Clear
8:15 PM 64.0 °F 47.3 °F 54% 30.15 in 10.0 mi Calm Calm - N/A   Clear
8:35 PM 63.1 °F 47.3 °F 56% 30.16 in 10.0 mi Calm Calm - N/A   Clear
8:55 PM 63.5 °F 47.5 °F 56% 30.16 in 10.0 mi Calm Calm - N/A   Clear
9:15 PM 62.6 °F 48.0 °F 59% 30.16 in 10.0 mi NW 4.6 mph - N/A   Scattered Clouds
9:35 PM 62.1 °F 47.7 °F 59% 30.16 in 10.0 mi Calm Calm - N/A   Clear
9:55 PM 60.8 °F 47.1 °F 61% 30.16 in 10.0 mi North 6.9 mph - N/A   Clear
10:15 PM 59.2 °F 46.4 °F 63% 30.16 in 10.0 mi NNW 10.4 mph - N/A   Clear
10:35 PM 58.1 °F 45.9 °F 64% 30.15 in 10.0 mi NNW 9.2 mph - N/A   Clear
10:55 PM 58.6 °F 45.7 °F 62% 30.16 in 10.0 mi WNW 3.5 mph - N/A   Clear
11:15 PM 58.1 °F 45.7 °F 63% 30.16 in 10.0 mi NNW 4.6 mph - N/A   Scattered Clouds
11:35 PM 55.4 °F 45.0 °F 68% 30.15 in 10.0 mi NNW 5.8 mph - N/A   Scattered Clouds
11:55 PM 57.2 °F 44.1 °F 62% 30.15 in 10.0 mi NNW 5.8 mph - N/A   Clear